Torna al catalogo

FREGAT DEB

AttivoHEO
NORAD 27763·DEBRIS·🇷🇺 Russia

Lanciato Mar 20, 2000 da Baikonur Cosmodrome

Loading…

Prossimi Passaggi (prossime 24 ore)

TLE

AggiornatoSource: Space-Track

Epoca: Sep 12, 2026, 13:15 UTC

1 27763U 00015B   26255.55268496  .00010936  00000-0  26430-2 0  9992
2 27763  64.5849 298.8005 4440709 166.9206 210.1754  6.52332102517684

Traccia FREGAT DEB in tempo reale con AllMySat

Download on the App Store